Lid_Strength_Index
2 2 2 1 1 2 3 3 5 8 8 5 5 2 2 1 1 1 -0 1 1 2 1 2 3 3 3 2 3 3 3 3 1 0 -1 -1 -1 -1
2 2 3 3 3 3 3 3 4 6 9 6 5 4 3 3 2 2 1 2 2 2 2 1 2 3 3 3 3 3 3 3 3 1 -1 -1 -1 -1
3 4 4 3 4 4 4 4 5 5 8 6 5 4 4 4 3 2 2 1 1 2 2 2 2 2 3 3 3 3 4 4 4 3 0 -1 -1 -0
4 4 4 4 4 4 5 5 5 5 6 7 5 5 4 3 3 2 2 2 2 2 3 3 3 3 2 3 4 4 3 4 4 4 3 -0 -1 -1
4 4 5 4 5 5 5 5 5 6 6 7 7 5 5 4 4 3 2 2 2 3 3 3 4 3 2 2 3 4 4 4 5 4 4 4 2 1
4 5 5 5 6 6 6 6 6 6 7 7 7 7 6 5 4 5 4 2 3 3 3 4 4 3 3 3 1 2 3 3 4 5 5 6 6 5
6 6 6 6 7 6 6 7 7 8 8 8 8 7 7 6 6 5 5 4 3 3 3 3 3 3 2 2 2 2 2 3 3 4 5 6 6 6
7 7 7 7 7 7 7 7 7 8 8 8 7 7 6 5 4 5 5 6 6 2 4 4 3 4 3 2 4 4 4 2 2 3 5 5 6 6
8 8 8 7 7 7 7 6 6 6 6 6 7 6 6 5 4 5 4 5 5 4 4 5 4 5 3 4 5 5 4 4 3 2 4 5 6 7
7 7 8 8 7 7 6 7 7 7 6 5 4 4 4 3 3 4 4 4 4 4 5 7 4 5 4 3 5 5 5 4 4 4 4 4 6 7
7 7 8 8 8 7 7 8 8 8 6 5 4 4 3 3 3 3 5 5 6 6 5 6 5 5 5 4 4 5 5 4 4 4 4 4 5 6
7 8 8 8 8 8 8 8 9 8 8 7 6 4 3 3 4 4 5 6 7 6 5 6 6 6 7 4 4 4 4 5 4 3 4 4 5 4
8 9 8 8 8 8 8 8 9 8 8 8 7 5 5 4 4 3 4 5 6 7 5 5 6 6 6 6 4 4 3 4 4 3 4 4 4 3
9 9 9 9 9 9 9 9 9 9 9 9 8 8 7 6 5 4 4 3 4 5 4 5 6 6 7 7 7 4 4 3 3 4 3 4 4 4
8 9 10 10 10 10 10 10 10 10 10 10 10 9 8 6 5 4 4 3 3 4 4 5 5 6 6 7 7 6 5 5 4 3 4 4 4 3
9 9 11 11 11 11 10 10 10 11 11 11 10 9 8 7 7 6 5 5 5 5 4 5 5 5 6 6 6 7 6 6 4 5 4 4 4 3
10 10 10 11 11 11 10 11 11 12 12 11 11 10 9 8 8 7 7 6 7 7 6 5 5 5 5 6 7 6 6 6 5 5 5 5 5 4
9 10 11 12 12 12 11 12 12 13 13 12 12 11 11 10 9 8 7 8 8 8 8 7 6 6 6 7 6 6 6 6 5 6 6 7 6 4
9 10 11 11 12 12 12 12 12 13 14 13 13 12 12 11 10 9 9 9 9 8 8 7 7 7 8 8 7 7 6 6 6 6 6 6 7 6
9 9 10 10 10 11 11 12 12 12 13 14 13 13 13 12 11 11 11 11 10 10 9 8 8 9 9 9 9 8 9 7 7 6 6 5 5 8
8 9 9 9 10 10 11 11 12 13 14 14 14 14 14 14 12 12 12 13 12 11 11 10 9 10 8 8 9 8 8 10 9 7 7 7 6 6
7 8 8 9 9 9 10 11 11 11 13 13 13 14 14 14 14 13 12 12 12 12 12 10 9 8 8 9 9 9 8 7 9 10 9 9 7 8
7 7 8 8 8 9 10 10 11 11 12 13 13 13 14 14 14 13 13 13 13 13 12 11 10 9 9 9 10 9 10 9 7 7 7 10 9 8